Lawrenceville, GA

10:01 PM EST on December 07, 2019 (GMT -0500)
Gwinnett County-Briscoe

Weather History for KLZU - September, 2019

Change the Weather History Date:

Sunday, September 29, 2019

  Actual Average (KWDR) Record (KWDR)
Temperature  
Mean Temperature 80 °F -  
Max Temperature 93 °F 78 °F 91 °F (1986)
Min Temperature 69 °F 56 °F 41 °F (1962)
Cooling Degree Days 15    
Growing Degree Days 30 (Base 50)    
Moisture  
Dew Point 70 °F    
Average Humidity 77    
Maximum Humidity 100    
Minimum Humidity 45    
Precipitation  
Precipitation 0.00 in - - ()
Sea Level Pressure  
Sea Level Pressure 30.21 in    
Wind  
Wind Speed 3 mph (ESE)    
Max Wind Speed 7 mph    
Max Gust Speed -    
Visibility 9 miles    
Events      
Averages and records for this station are not official NWS values.
T = Trace of Precipitation, MM = Missing Value Source: NWS Daily Summary

Daily Weather History Graph

Daily Weather History Graph

Search for Another Location

Airport or City:

Astronomy

Sep. 29, 2019 Rise Set
Actual Time 7:28 AM EDT 7:23 PM EDT
Civil Twilight 7:03 AM EDT 7:48 PM EDT
Nautical Twilight 6:34 AM EDT 8:17 PM EDT
Astronomical Twilight 6:05 AM EDT 8:46 PM EDT
Moon 8:18 AM EDT (9/29) 8:24 PM EDT (9/29)
Length of Visible Light 12h 44m
Length of Day
11h 54m
New Moon, 1% of the Moon is Illuminated
Sep 29
New Moon
Oct 5
First Quarter
Oct 13
Full
Oct 21
Last Quarter
Oct 27
New

Hourly Weather History & Observations

Time (EDT) Temp. Heat Index Dew Point Humidity Pressure Visibility Wind Dir Wind Speed Gust Speed Precip Events Conditions
12:56 AM 75.9 °F - 73.9 °F 94% 30.18 in 10.0 mi ENE 4.6 mph - N/A   Partly Cloudy
1:56 AM 73.9 °F - 73.0 °F 97% 30.19 in 10.0 mi Calm Calm - N/A   Clear
2:56 AM 73.9 °F - 72.0 °F 93% 30.19 in 10.0 mi ENE 3.5 mph - N/A   Clear
3:56 AM 73.0 °F - 72.0 °F 96% 30.19 in 10.0 mi NE 4.6 mph - N/A   Clear
4:56 AM 71.1 °F - 71.1 °F 100% 30.20 in 6.0 mi Calm Calm - N/A   Clear
5:56 AM 70.0 °F - 70.0 °F 100% 30.22 in 4.0 mi Calm Calm - N/A   Clear
6:56 AM 70.0 °F - 70.0 °F 100% 30.23 in 2.5 mi Calm Calm - N/A   Clear
7:09 AM 69.8 °F - 69.8 °F 100% 30.23 in 3.0 mi Calm Calm - N/A   Clear
7:56 AM 70.0 °F - 70.0 °F 100% 30.25 in 3.0 mi Calm Calm - N/A   Clear
8:56 AM 73.0 °F - 71.1 °F 93% 30.26 in 10.0 mi Calm Calm - N/A   Clear
9:56 AM 78.1 °F - 70.0 °F 76% 30.27 in 10.0 mi SW 5.8 mph - N/A   Clear
10:56 AM 82.9 °F 87.0 °F 70.0 °F 65% 30.27 in 10.0 mi SW 4.6 mph - N/A   Clear
11:56 AM 86.0 °F 90.7 °F 70.0 °F 59% 30.25 in 10.0 mi Variable 4.6 mph - N/A   Clear
12:56 PM 88.0 °F 92.1 °F 69.1 °F 53% 30.23 in 10.0 mi SSW 4.6 mph - N/A   Partly Cloudy
1:56 PM 89.1 °F 92.9 °F 68.0 °F 50% 30.21 in 10.0 mi East 5.8 mph - N/A   Scattered Clouds
2:56 PM 90.0 °F 93.6 °F 68.0 °F 48% 30.18 in 10.0 mi Calm Calm - N/A   Scattered Clouds
3:56 PM 91.9 °F 95.9 °F 68.0 °F 45% 30.17 in 10.0 mi Variable 6.9 mph - N/A   Scattered Clouds
4:56 PM 91.9 °F 95.9 °F 68.0 °F 45% 30.16 in 10.0 mi ENE 6.9 mph - N/A   Partly Cloudy
5:56 PM 91.0 °F 94.3 °F 66.9 °F 45% 30.16 in 10.0 mi ESE 3.5 mph - N/A   Clear
6:56 PM 87.1 °F 90.6 °F 68.0 °F 53% 30.16 in 10.0 mi ESE 4.6 mph - N/A   Clear
7:56 PM 81.0 °F 84.1 °F 69.1 °F 67% 30.17 in 10.0 mi Calm Calm - N/A   Clear
8:56 PM 77.0 °F - 70.0 °F 79% 30.19 in 10.0 mi Calm Calm - N/A   Clear
9:56 PM 75.0 °F - 70.0 °F 84% 30.19 in 10.0 mi Calm Calm - N/A   Clear
10:56 PM 73.0 °F - 70.0 °F 90% 30.21 in 10.0 mi Calm Calm - N/A   Clear
11:56 PM 73.0 °F - 70.0 °F 90% 30.20 in 10.0 mi Calm Calm - N/A   Clear